Mullan Pass, ID

3:18 AM PDT on October 16, 2019 (GMT -0700)
Mullan Pass

Weather History for KMLP - August, 2019

Change the Weather History Date:

Thursday, August 15, 2019

  Actual Average (WUND) Record (WUND)
Temperature  
Mean Temperature 58 °F -  
Max Temperature 64 °F - - (-1)
Min Temperature 54 °F - - (-1)
Degree Days  
Heating Degree Days 6    
Growing Degree Days 8 (Base 50)    
Moisture  
Dew Point 44 °F    
Average Humidity 58    
Maximum Humidity 65    
Minimum Humidity 51    
Precipitation  
Precipitation 0.00 in - - ()
Sea Level Pressure  
Sea Level Pressure 30.00 in    
Wind  
Wind Speed 3 mph (West)    
Max Wind Speed 8 mph    
Max Gust Speed -    
Visibility 10 miles    
Events Thunderstorm    
Averages and records for this station are not official NWS values.
T = Trace of Precipitation, MM = Missing Value Source: NWS Daily Summary

Daily Weather History Graph

Daily Weather History Graph

Search for Another Location

Airport or City:

Astronomy

Aug. 15, 2019 Rise Set
Actual Time 5:38 AM PDT 7:54 PM PDT
Civil Twilight 5:04 AM PDT 8:28 PM PDT
Nautical Twilight 4:22 AM PDT 9:10 PM PDT
Astronomical Twilight 3:34 AM PDT 9:57 PM PDT
Moon 8:26 PM PDT (8/15) 5:33 AM PDT (8/15)
Length of Visible Light 15h 23m
Length of Day
14h 16m
Full, 100% of the Moon is Illuminated
Aug 15
Full
Aug 23
Last Quarter
Aug 30
New
Sep 5
First Quarter
Sep 13
Full

Hourly Weather History & Observations

Time (PDT) Temp. Dew Point Humidity Pressure Visibility Wind Dir Wind Speed Gust Speed Precip Events Conditions
12:53 AM 55.9 °F 39.0 °F 53% 30.00 in 10.0 mi NW 3.5 mph - N/A   Clear
1:53 AM 55.9 °F 39.0 °F 53% 30.00 in 10.0 mi NW 3.5 mph - N/A   Clear
2:53 AM 55.0 °F 39.0 °F 55% 29.99 in 10.0 mi Calm Calm - N/A   Clear
3:53 AM 54.0 °F 39.0 °F 57% 29.99 in 10.0 mi NW 3.5 mph - N/A   Clear
4:53 AM 54.0 °F 39.0 °F 57% 29.99 in 10.0 mi WNW 4.6 mph - N/A   Clear
5:53 AM 54.0 °F 39.0 °F 57% 30.00 in 10.0 mi NW 3.5 mph - N/A   Clear
6:53 AM 55.9 °F 39.9 °F 55% 30.00 in 10.0 mi Variable 3.5 mph - N/A   Scattered Clouds
7:53 AM 57.9 °F 39.9 °F 51% 29.99 in 10.0 mi Calm Calm - N/A   Clear
8:53 AM 59.0 °F 43.0 °F 55% 29.99 in 10.0 mi Calm Calm - N/A   Partly Cloudy
9:53 AM 60.1 °F 43.0 °F 53% 29.99 in 10.0 mi Calm Calm - N/A   Mostly Cloudy
10:53 AM 57.0 °F 45.0 °F 64% 30.01 in 10.0 mi Variable 4.6 mph - N/A   Overcast
11:53 AM 61.0 °F 45.0 °F 56% 30.00 in 10.0 mi Variable 4.6 mph - N/A   Mostly Cloudy
12:53 PM 57.9 °F 46.0 °F 65% 30.01 in 10.0 mi Variable 5.8 mph - 0.00 in   Mostly Cloudy
1:21 PM 60.1 °F 46.9 °F 62% 30.25 in 10.0 mi Variable 4.6 mph - N/A Thunderstorm Overcast
1:36 PM 61.0 °F 46.9 °F 60% 30.25 in 10.0 mi Variable 4.6 mph - N/A   Overcast
1:53 PM 63.0 °F 48.0 °F 58% 29.98 in 10.0 mi Variable 3.5 mph - N/A   Scattered Clouds
2:53 PM 62.1 °F 46.0 °F 56% 29.97 in 10.0 mi SW 8.1 mph - N/A   Partly Cloudy
3:35 PM 61.0 °F 46.9 °F 60% 30.23 in 10.0 mi Variable 3.5 mph - N/A   Mostly Cloudy
3:53 PM 63.0 °F 46.9 °F 56% 29.96 in 10.0 mi North - - N/A   Scattered Clouds
4:53 PM 63.0 °F 46.0 °F 54% 29.95 in 10.0 mi Variable 4.6 mph - N/A   Scattered Clouds
5:53 PM 62.1 °F 46.0 °F 56% 29.94 in 10.0 mi Variable 3.5 mph - N/A   Clear
6:53 PM 59.0 °F 45.0 °F 60% 29.93 in 10.0 mi Variable 4.6 mph - N/A   Clear
7:53 PM 57.0 °F 44.1 °F 62% 29.92 in 10.0 mi Variable 4.6 mph - N/A   Clear
8:53 PM 57.0 °F 45.0 °F 64% 29.92 in 10.0 mi Variable 3.5 mph - N/A   Clear
9:53 PM 57.0 °F 44.1 °F 62% 29.91 in 10.0 mi Variable 3.5 mph - N/A   Clear
10:53 PM 57.0 °F 43.0 °F 59% 29.91 in 10.0 mi SW 4.6 mph - N/A   Clear
11:53 PM 55.9 °F 44.1 °F 64% 29.88 in 10.0 mi SW 6.9 mph - N/A   Clear